Погода в Тотьме

Погода в Тотьме : погода сейчас, прогноз погоды и архив. Всё, что Вы хотите узнать о погоде в Тотьме!

Хотите узнать прогноз погоды в Тотьме? Тогда Вам сюда: Погода в Тотьме

Поиск расширенной информации на нашем сайте:

Другие новости

Новости СМИ2

Главная страница сайта

Новости сайта

03.07.2017

Напоминаем, что на нашем специализированном сайте Метеоцентр.Азия вы можете получить высокодетализированные автоматические прогнозы погоды по пунктам России, СНГ и мира в авиационном формате (включающие направление и скорость ветра, видимость, явления погоды, количество и форму облачности, нижнюю и верхнюю границу облачности).


Погода в Тотьме - сегодня

Время (UTC), дата Ветер
(°,м/с) 
Видим.   Явления Облачность Т
(°С)
Тd
(°С)
f(%) Тe
(°С)
Pmin
(гПа)
dP
(гПа)
Po
(мм)
O2
(г/м3)
Тmin Tmax R s Состояние
почвы
06 16.06.18 290 (З) 10 км    3/0 верхняя 
[Ci fib]
+18.3 +3.2 37 +19  1020.5  -0.2  753  284           
09 16.06.18 210 (ЮЗ) 10 км    5/4 2000 м средняя, верхняя 
[Ac trans|Ci fib]
+21.3 +3.6 31 +21  1019.6  -0.7  753  281           
12 16.06.18 170 (Ю) 10 км    6/6 2000 м средняя 
[Ac trans]
+22.1 +4.6 32 +22  1018.8  -0.7  752  280           
18 16.06.18 тихо ()   10 км    8/4 2000 м средняя, верхняя 
[Ac trans|Ci fib]
+17.3 +10.2 63 +19  1018.1  -0.3  752  283           
21 16.06.18 290 (З) 10 км    9/5 2000 м средняя, верхняя 
[Ac trans|Ci fib]
+13.5 +8.3 71 +15  1018.8  0.5  752  287           
00 17.06.18 270 (З) 10 км    10/3 1000 м средняя, верхняя 
[Sc|Ac trans|Cs]
+13.2 +9.8 80 +15  1019  0.2  752  287           
03 17.06.18 310 (СЗ) 10 км    8/3 1000 м средняя, верхняя 
[Sc|Ac trans|Ci fib]
+18.2 +12.1 68 +24  1018.9  0.2  752  282  +12.4        влажная 
06 17.06.18 300 (СЗ) 10 км    6/0 верхняя 
[Ci fib]
+22.9 +12.6 52 +28  1018.4  -0.3  752  277           
09 17.06.18 270 (З) 10 км    8/8 540 м 
[Cu med, cong]
+24.4 +10.7 42 +26  1017.7  -0.6  752  276           
12 17.06.18 310 (СЗ) 10 км    6/4 600 м кучево-дожд., средняя 
[Cb cap|Ac trans]
+26.3 +9.5 35 +27  1016.7  -0.9  751  274           
18 17.06.18 310 (СЗ) 10 км    4/4 2000 м средняя 
[Ac trans]
+20.8 +11.6 56 +24  1016.3  -0.1  750  279           
21 17.06.18 тихо ()   10 км    8/8 2000 м средняя 
[Ac trans]
+15.6 +11.5 77 +19  1017.1  0.5  751  284           
00 18.06.18 тихо ()   10 км    8/6 2000 м средняя, верхняя 
[Ac trans|Ci fib]
+14.6 +11.1 80 +17  1017.2  751  285           
03 18.06.18 тихо ()   10 км    10/4 300 м средняя 
[Sc|Ac cast]
+17.8 +12.9 73 +23  1016.8  -0.2  751  281  +13.7        влажная 
06 18.06.18 тихо ()   10 км    9/1 1000 м средняя 
[Sc|Ac trans]
+22.9 +13 54 +28  1016  -0.5  750  276           
09 18.06.18 350 (С) 10 км    3/3 1000 м 
[Cu hum]
+26.2 +9.8 36 +27  1014.8  -1  750  274           
12 18.06.18 280 (З) 10 км    6/4 1000 м средняя 
[Cu med, cong|Ac trans]
+27.5 +7.4 28 +28  1013.6  -1.2  749  273           
18 18.06.18 330 (СЗ) 10 км    4/4 600 м 
[Sc diur, vesp]
+21.2 +11.1 52 +24  1012.3  -0.3  748  277           
21 18.06.18 тихо ()   10 км    8/8 2000 м средняя 
[Ac trans]
+14.9 +12.5 86 +20  1012.2  -0.4  747  283           
03 19.06.18 180 (Ю) 10 км    8/3 300 м кучево-дожд., средняя 
[Cb cap|Ac trans]
+15.9 +14.6 92 +25  1010.7  -0.7  746  281  +14.4        влажная 
06 19.06.18 220 (ЮЗ) 10 км    9/5 2000 м средняя, верхняя 
[Ac trans|Ci fib]
+23.3 +14.3 57 +31  1008.9  -1.3  745  274           
09 19.06.18 280 (З) 10 км    9/5 600 м средняя, верхняя 
[Cu med, cong|Ac trans|Ci fib]
+25.7 +11.8 42 +29  1007.2  -1.6  744  272           
18 19.06.18 180 (Ю) 10 км  {гроза, ливн. осадки}  10/5 600 м кучево-дожд., средняя 
[Cb cap|Ac trans]
+18.9 +16.2 84 +31  1002.6  -1.6  740  275           
21 19.06.18 200 (Ю) 10 км    10/6 420 м кучево-дожд., средняя 
[Cb calv|As trans]
+16.5 +14.4 87 +25  1000.3  -2.4  739  278           
03 20.06.18 230 (ЮЗ) 3{12}  4000 м  слаб. ливневой дождь  10/8 300 м кучево-дожд., средняя 
[Cb cap|As op]
+13.7 +10.3 80 +16  996.9  -0.9  736  280  +12.8      влажная 
Время (UTC), дата Ветер
(°,м/с) 
Видим.   Явления Облачность Т
(°С)
Тd
(°С)
f(%) Тe
(°С)
Pmin
(гПа)
dP
(гПа)
Po
(мм)
O2
(г/м3)
Тmin Tmax R s Состояние
почвы

Для получения пояснительной информации подведите курсор к названию столбца.

ПОГОДА в Тотьме - архив

Всё, что Вы хотите узнать о погоде в Тотьме - удобно и подробно!

Выберите нужную дату (начиная с 1 января 2015* года) и нажмите кнопку "Найти".
Будут отображены архивные сводки погоды по пункту Тотьма, начиная с указанной даты.


Отображать данные в формате CSV (для использования в таблицах Excel)


Внимание! Наш архив погоды предназначен исключительно для личного некоммерческого использования в познавательных целях. Если Вам необходимы официальные справки о состоянии погоды (для производственных, юридических, коммерческих и т.п. целей), обращайтесь в органы Росгидромета.

*Примечание: данная дата относится к архиву по метеостанциям СССР (Россия, СНГ, Балтия).
Архив по метеостанциям Зарубежной Европы и Азии (кроме Китая) хранится 10 дней, по другим регионам земного шара (Китай, Африка, Америка, Австралия, Океания) - 1 день.

Тотьма - район местоположения метеостанции


Название, широта, долгота, высота метеостанции:
Тотьма 59.9°ш. 42.8°д. 134 м над ур. моря [Российская Федерация]

Дополнительная информация

В oтличие oт бoльшинства пoгoдных сайтoв мы публикуем пoдрoбную метеoинфoрмацию в детальнoм прoфессиoнальнoм фoрмате.

Характеристики температуры и влажнoсти вoздуха измеряются на высoте 2 м в тени вдали oт зданий и деревьев.
Скoрoсть ветра измеряется на высoте 10 м (на урoвне рoста челoвека скoрoсть ветра ниже в 1.5-2 раза). Если метеoстанция нахoдится в гoрoде или в лесу, тo скoрoсть ветра занижена на 2-4 м/с пo сравнению с oткрытым местoм. Скoрoсть ветра над акватoриями крупных рек и oзёр, а также на вершинах хoлмoв на 2-5 м/с выше, чем в oбычных услoвиях.
Атмoсфернoе давление в разных тoчках местнoсти мoжет значительнo oтличаться oт давления на метеoстанции, в зависимoсти oт услoвий рельефа (при пoдъёме на 10 м давление пoнижается примернo на 1 мм рт.ст.).